Theta_e
311 311 312 311 309 309 307 308 305 308 308 312 315 319 323 325 327 330 332 334 337 339 341 348 355 359 362 360 363 364 364 362 363 365 366 367 367 368 368 369 368 370 369 366
309 311 311 309 312 312 311 311 310 311 310 317 319 323 324 326 326 328 330 331 333 339 344 344 347 359 362 362 362 365 366 364 368 369 372 369 370 370 369 370 371 370 368 368
305 309 309 305 309 311 313 314 313 309 313 319 318 321 324 325 326 328 330 331 333 337 344 346 346 349 357 362 364 365 367 369 370 371 371 372 372 371 369 370 370 369 367 366
304 308 299 310 315 314 312 313 315 316 317 319 322 323 325 326 327 328 329 331 334 339 343 350 347 348 354 359 367 367 367 368 371 372 372 373 372 371 371 369 368 367 365 366
302 303 306 308 312 312 311 310 316 316 318 320 322 323 322 325 327 328 330 332 334 339 344 351 354 350 354 360 359 368 368 369 370 372 373 372 370 370 369 368 367 367 366 365
304 300 298 307 313 317 317 308 318 318 318 319 320 314 318 327 328 329 332 333 334 339 344 348 356 351 353 356 357 352 364 372 374 374 373 372 371 373 370 369 367 364 365 366
304 302 306 313 316 320 305 308 320 320 320 320 319 321 325 328 329 331 333 334 336 339 343 348 357 354 351 355 354 359 369 369 373 374 375 375 375 371 370 368 368 367 365 366
306 303 300 317 317 312 317 322 321 322 322 322 324 325 327 329 331 332 332 333 335 338 343 349 357 359 353 356 364 367 371 366 375 374 370 369 373 370 370 368 367 365 365 364
308 308 317 323 320 324 322 321 321 322 322 325 325 326 329 330 331 331 333 334 337 339 344 350 356 359 357 362 363 365 368 370 370 372 372 371 370 368 364 367 361 361 361 359
310 313 315 317 323 325 323 322 324 325 327 328 327 328 330 330 331 332 335 335 337 340 343 346 355 357 362 363 366 367 367 367 365 367 364 371 367 366 363 361 359 359 358 363
312 316 319 322 324 322 322 323 321 326 329 329 330 330 331 331 333 333 334 335 337 339 342 347 355 354 358 365 367 367 362 356 350 341 339 339 330 329 354 337 336 359 360 360
305 314 314 317 322 320 319 320 321 324 327 331 333 332 334 333 335 334 334 336 337 340 343 344 350 351 357 365 362 353 350 348 341 338 338 342 338 330 314 310 306 305 305 325
312 315 315 317 317 320 318 320 322 322 327 327 333 334 334 334 334 330 334 336 336 340 339 340 346 349 358 360 354 341 336 342 342 337 341 339 338 338 332 320 305 303 303 304
316 316 314 315 315 318 320 321 321 324 327 327 333 334 332 331 331 332 332 335 338 339 340 340 343 345 350 354 352 347 347 326 342 345 343 344 343 343 341 338 337 335 310 313
317 316 316 318 318 318 322 325 322 323 325 331 334 330 330 328 330 331 332 334 338 338 340 345 343 343 349 350 350 348 344 344 346 346 345 342 346 344 343 342 341 337 334 317
319 320 319 320 321 323 325 326 322 323 328 332 330 327 328 330 330 327 330 337 336 331 342 341 344 347 348 350 350 349 347 333 340 345 343 344 343 341 340 340 338 337 334 333
315 316 319 320 322 325 326 325 323 328 332 332 330 327 329 330 327 327 328 335 335 340 345 345 344 349 350 347 344 343 345 344 336 344 342 340 340 338 337 336 335 333 332 326
321 323 325 326 326 326 328 331 332 332 332 334 333 331 329 327 326 326 327 329 337 336 337 342 348 347 347 346 344 342 341 340 340 340 340 339 338 337 335 334 334 332 331 327
322 322 323 323 325 327 328 328 330 331 332 333 332 333 332 329 327 328 331 329 333 332 335 339 332 342 344 340 340 341 339 338 338 337 337 329 334 334 335 335 334 331 329 330
317 322 322 321 325 326 327 327 327 327 330 332 330 331 333 332 331 328 328 327 326 332 337 336 342 339 339 337 333 338 337 337 336 336 336 335 336 336 335 326 335 334 336 334
314 318 320 322 322 325 326 327 326 326 328 330 328 332 334 337 334 334 330 325 329 330 334 331 338 339 345 335 333 335 333 331 329 330 331 332 333 331 330 329 328 328 329 328
313 317 318 321 323 324 326 326 328 329 329 330 331 333 334 334 335 333 334 330 332 318 332 337 338 331 337 330 331 330 330 330 329 328 328 328 327 326 326 327 326 325 325 324
315 317 317 320 321 323 325 326 327 328 328 330 332 331 334 336 339 329 328 334 331 324 333 334 322 321 323 335 332 331 330 329 328 327 326 326 326 325 323 322 321 320 318 316
317 317 319 322 323 323 322 326 327 328 329 332 333 334 334 333 336 334 335 321 315 319 328 323 321 319 326 334 334 331 330 328 328 327 326 315 323 322 320 318 316 315 313 311
313 314 317 319 320 321 323 325 324 328 330 329 332 334 335 339 339 335 334 327 313 323 323 315 316 318 332 333 332 331 329 327 325 324 321 319 317 316 315 314 313 312 311 310
312 312 313 316 320 321 322 323 323 327 327 329 327 330 333 341 336 334 332 326 327 320 326 327 329 329 327 325 324 325 323 320 320 318 316 315 315 314 313 312 310 309 308 307
313 308 314 315 321 324 324 323 325 325 327 330 327 330 333 334 332 328 320 325 325 326 327 327 327 324 326 325 323 321 319 317 310 314 312 310 309 311 310 309 309 308 307 306
Wind_Speed
13 8 9 11 11 9 14 17 16 10 16 12 2 5 5 6 9 10 12 13 11 10 7 7 11 13 14 15 14 14 14 15 16 14 13 13 12 11 11 12 12 12 12 10
13 15 10 14 13 12 14 15 14 15 19 10 5 5 6 8 10 9 10 13 14 13 11 9 9 12 13 15 15 14 13 14 13 13 12 12 12 12 11 11 12 12 11 12
14 14 13 18 17 19 18 18 16 17 17 13 6 3 8 11 11 9 10 14 15 15 13 11 10 9 14 15 14 14 14 12 13 14 15 14 13 12 12 12 12 11 11 10
15 15 21 13 17 9 16 19 20 19 17 1 6 6 8 9 9 10 13 14 14 14 14 13 13 10 11 14 14 14 14 13 13 14 16 15 15 15 13 12 11 10 10 10
15 16 18 16 11 13 16 19 20 16 10 9 4 11 12 8 5 11 15 14 13 15 15 14 10 12 10 14 15 15 15 16 15 15 16 17 16 15 13 12 11 10 9 10
14 16 18 13 10 12 13 15 17 11 6 7 6 10 8 12 15 16 15 15 14 15 16 15 12 10 12 17 15 18 14 13 15 15 16 17 15 14 12 11 10 9 9 9
15 16 16 14 13 1 13 5 6 2 2 7 11 10 13 15 17 17 14 17 16 14 14 13 13 12 12 14 17 12 13 13 14 14 14 14 14 13 12 11 9 9 8 8
12 17 19 6 5 14 3 2 3 6 8 10 11 11 12 14 16 17 18 17 17 14 15 14 12 11 12 14 11 11 10 14 14 12 12 12 14 12 11 9 8 8 7 7
10 8 3 5 9 1 2 5 5 7 11 11 12 11 12 12 13 13 15 14 13 12 15 15 12 11 13 13 9 10 10 8 11 10 8 8 12 13 10 10 7 8 8 7
14 13 17 14 7 5 4 5 7 9 10 10 12 13 12 11 11 12 14 14 13 11 14 14 13 12 11 11 10 13 13 18 11 9 6 4 7 8 7 7 6 4 4 3
14 15 16 13 5 5 7 9 9 9 9 11 12 13 13 13 14 14 14 15 14 9 12 15 13 9 7 8 12 15 18 18 19 11 14 14 10 10 5 7 5 2 2 1
13 14 14 15 10 12 12 12 11 10 11 12 13 13 12 14 13 14 15 14 15 11 11 13 8 7 9 7 17 16 13 15 11 9 12 16 7 4 12 13 12 15 13 8
16 18 18 17 14 15 17 17 15 14 13 14 13 11 14 15 15 13 15 16 17 9 8 7 5 6 8 13 15 14 21 13 5 12 14 16 15 12 5 7 8 11 11 13
20 19 20 18 17 15 14 17 14 16 15 13 11 12 14 14 15 16 14 16 14 9 5 4 5 5 6 8 12 12 9 9 10 9 8 8 8 13 10 10 8 7 9 7
18 19 20 18 19 20 18 15 17 16 13 11 10 9 10 13 15 12 11 11 11 7 8 8 6 3 5 6 8 8 9 8 7 9 10 10 8 9 8 8 8 9 9 5
19 19 17 14 15 18 17 15 16 14 10 9 7 3 4 6 7 6 11 10 8 7 10 7 8 8 6 9 12 12 12 12 10 11 11 9 9 8 9 8 7 6 6 7
11 18 13 13 11 13 11 11 12 9 6 9 7 3 3 6 8 9 7 10 6 10 11 11 12 10 12 12 12 10 11 11 14 10 9 10 8 10 9 7 7 8 8 8
6 11 10 8 8 7 4 1 4 5 6 7 5 6 4 3 5 8 6 11 10 11 8 8 8 11 12 12 12 11 11 10 10 9 9 8 8 9 9 9 8 8 8 5
14 12 12 9 11 8 7 7 7 6 5 5 7 10 7 3 4 6 7 6 4 7 5 8 2 9 12 11 10 10 11 12 11 9 10 8 8 7 8 9 9 8 7 5
14 14 12 6 14 8 8 8 9 6 5 6 6 9 9 4 6 2 3 5 6 2 3 6 8 10 8 5 5 10 11 12 11 10 9 9 9 10 10 11 10 9 7 7
14 13 14 12 10 9 6 7 9 8 8 7 6 8 5 4 4 8 7 2 3 2 4 3 6 7 5 7 8 9 12 12 11 11 10 11 12 11 11 11 11 10 8 7
10 13 13 12 12 10 8 9 10 9 9 9 6 7 5 4 6 6 6 7 5 2 3 4 5 7 2 6 10 13 13 13 12 11 12 12 12 11 11 10 10 10 9 9
10 12 12 12 11 12 11 8 8 9 9 9 7 5 6 5 7 8 7 9 8 5 6 4 8 9 9 7 10 13 13 12 12 12 12 11 11 10 10 10 9 9 9 9
12 11 12 11 11 12 11 8 9 10 9 9 7 5 6 6 7 6 11 9 11 7 9 9 7 7 10 8 9 11 12 12 12 11 11 12 11 10 10 10 10 9 8 8
10 11 12 12 11 9 8 6 8 8 7 5 2 5 7 5 6 8 10 8 8 8 10 8 10 10 10 10 12 12 12 12 12 12 12 11 11 10 10 9 9 8 7 7
9 7 7 10 10 9 5 4 5 5 6 1 2 3 4 6 8 9 8 9 9 11 11 9 9 11 12 10 11 13 13 13 13 12 12 11 11 10 10 8 7 7 7 7
7 7 7 8 8 7 3 6 5 5 3 2 4 6 6 5 7 10 11 10 10 11 11 11 10 12 13 13 13 13 13 13 13 12 12 7 8 9 9 8 7 7 7 7
Wind_Direction
286 284 284 286 273 217 234 253 274 268 233 253 356 321 353 343 3 12 18 13 9 355 319 276 206 212 210 212 203 215 203 198 198 198 199 195 194 198 205 203 203 209 202 199
272 275 256 265 258 254 253 254 260 266 279 276 290 286 314 351 351 354 7 4 357 348 338 319 254 220 215 213 202 200 210 209 192 188 180 185 183 191 193 205 209 201 202 199
262 274 270 258 249 248 246 254 249 251 257 268 258 288 336 328 324 337 344 346 345 339 338 327 306 253 227 216 202 196 198 216 196 184 178 177 180 189 189 195 199 197 203 203
270 276 257 261 272 312 285 276 271 257 263 295 320 306 306 314 333 342 340 339 334 332 335 331 312 286 239 210 197 186 192 198 204 197 180 176 176 184 188 190 196 197 200 204
258 251 265 261 244 245 251 259 246 269 277 248 261 310 290 268 17 325 326 325 324 323 326 322 296 281 232 211 198 179 187 186 203 204 184 174 179 179 183 185 194 200 200 202
244 256 265 279 295 325 255 268 271 262 278 321 322 288 300 346 322 319 319 317 316 318 312 319 318 275 229 212 207 212 170 185 187 202 203 170 172 173 177 186 191 200 202 204
233 250 258 268 275 287 246 291 73 44 316 304 303 313 313 301 304 307 309 310 314 305 307 312 317 290 236 233 222 200 171 172 197 194 202 175 164 167 170 183 180 199 196 201
237 258 258 232 215 231 313 126 325 326 320 312 301 295 300 303 301 303 301 300 304 305 303 309 313 297 261 242 234 204 193 166 173 189 204 172 155 157 163 170 185 190 204 218
280 270 24 327 276 131 312 294 327 323 312 314 293 292 299 295 296 301 300 298 297 295 301 301 304 294 266 256 223 197 165 141 131 166 199 186 158 154 162 171 193 198 194 225
269 251 267 257 241 258 310 331 334 311 294 283 283 289 285 284 290 301 303 303 294 290 289 290 293 290 273 249 199 164 164 133 121 131 142 160 166 163 172 174 179 177 200 230
282 276 280 259 265 311 321 304 306 293 273 270 272 271 284 292 300 307 307 303 290 286 280 285 282 270 263 226 187 165 131 118 122 137 100 33 5 351 61 44 344 167 127 200
266 297 306 290 272 282 286 290 297 287 274 266 262 273 288 294 299 299 296 297 287 268 275 284 266 231 205 184 141 135 135 133 126 117 110 139 203 75 38 26 33 51 49 35
276 283 277 276 278 274 277 275 275 265 262 275 270 271 286 284 285 287 284 282 275 263 267 299 292 249 190 169 160 164 137 136 182 147 144 164 153 134 118 64 43 52 58 60
295 282 274 278 270 279 276 284 265 262 261 276 268 275 283 286 288 283 278 279 259 260 238 224 265 201 181 192 177 181 155 136 172 165 166 128 119 139 162 167 164 133 54 69
289 282 275 274 277 278 277 274 260 245 257 254 248 275 302 316 305 306 284 264 254 245 240 215 181 207 210 151 173 159 145 142 124 113 114 103 130 143 150 140 141 124 141 153
295 286 271 268 265 267 273 258 243 243 252 238 239 289 334 325 308 285 299 259 214 212 205 182 157 157 158 141 146 129 109 100 102 108 117 130 133 137 125 124 132 135 106 100
312 301 313 304 290 285 255 244 243 253 259 238 229 182 15 11 312 292 303 304 248 234 198 162 142 137 140 137 131 120 113 116 114 122 135 137 146 129 123 130 118 99 93 66
286 287 343 339 349 336 352 29 316 277 267 263 248 214 168 124 332 345 316 294 227 215 181 147 138 135 128 127 120 118 122 121 110 118 115 121 126 122 127 112 115 110 109 107
343 355 356 352 334 348 354 356 4 0 338 299 281 253 238 247 354 1 357 331 115 100 54 89 49 130 116 100 120 116 115 112 113 109 99 110 117 118 105 111 112 108 110 136
331 336 337 350 319 340 343 343 338 333 334 327 309 286 290 232 165 165 76 48 352 51 47 84 99 112 105 92 111 108 121 118 120 133 131 123 116 113 106 108 115 109 126 140
311 316 320 325 322 322 335 334 321 334 338 317 296 290 300 325 125 167 145 75 355 350 67 99 106 115 122 135 130 124 117 107 115 116 110 107 113 106 102 100 92 92 91 79
299 300 304 313 314 314 326 325 320 325 321 312 296 279 247 187 145 151 153 155 156 204 125 113 114 97 157 214 129 125 128 122 118 115 108 108 109 110 104 98 92 86 81 73
294 286 286 286 299 306 306 303 306 311 311 305 296 254 231 216 170 145 139 129 125 185 151 114 137 147 207 166 130 119 123 123 114 109 105 106 104 100 97 94 91 88 87 79
294 288 282 280 290 289 295 318 331 305 305 297 267 208 211 185 166 152 107 109 132 174 123 134 123 115 104 104 104 114 111 106 100 100 101 103 107 105 99 94 89 87 85 75
281 280 283 272 268 269 287 319 307 288 305 297 240 180 171 188 168 131 134 115 136 127 110 132 137 110 112 116 113 112 113 117 116 112 109 106 99 90 84 80 78 78 77 70
267 267 270 281 279 285 286 290 282 308 295 225 135 134 189 163 129 125 133 126 128 124 126 144 124 116 114 112 107 111 113 115 108 101 105 106 104 99 89 86 87 80 76 69
248 251 259 259 252 238 241 276 299 294 271 160 146 137 128 124 104 117 125 133 139 132 118 120 120 118 122 118 116 113 111 107 104 108 99 83 86 92 94 87 81 83 78 64